Location: Squamish
(49.7000°N, 123.1500°W)
Time: 18:59:29
(UTC-07:00)

Daily predictions for brighter satellites

Satellite Brightness Start Highest point End
(mag) Time Altitude Azimuth Time Altitude Azimuth Time Altitude Azimuth
Gbstr 26 Del rocket 3.5 18:42:02 10° W 18:46:38 70° N 18:52:22 10° E
YAOGAN 1 2.5 18:44:13 10° SSE 18:48:32 74° ENE 18:52:53 10° N
GP-B 3.6 18:45:03 10° NNE 18:49:13 38° E 18:53:23 10° SSE
Meteor 1-16 Rocket 4.3 18:44:51 10° SSE 18:49:55 48° E 18:55:04 10° NNE
Landsat 4 3.6 18:47:33 10° NNE 18:51:17 67° ESE 18:54:58 10° S
ALOS 2.9 18:47:11 10° SE 18:51:26 36° ENE 18:55:43 10° N
Meteor 2-15 4.5 18:46:18 10° N 18:52:26 85° E 18:58:33 10° S
Cosmos 1833 Rocket 4.0 18:47:14 10° WSW 18:52:32 41° NW 18:57:52 10° NNE
CZ-4 R/B 1.9 18:50:38 10° S 18:54:50 70° WSW 18:59:02 10° NNW
CZ-2C R/B 3.7 18:51:32 10° NNE 18:56:08 74° ESE 19:00:37 10° S
Cosmos 1953 3.8 18:53:46 10° SSW 18:57:39 42° WNW 19:01:33 10° N
Cosmos 1400 Rocket 3.1 18:54:18 10° N 18:58:15 46° ENE 19:02:07 10° SSE
FENGYUN 3A 4.0 18:54:01 10° SE 18:59:06 45° ENE 19:04:15 10° N
MOS 1 4.3 18:58:16 10° SSE 19:03:55 81° ENE 19:09:38 10° NNW
Cosmos-2242 2.9 19:00:31 10° S 19:04:46 76° E 19:09:02 10° NNE
Meteor 1-28 Rocket 3.2 19:01:42 10° NNE 19:05:31 83° E 19:09:18 10° SSW
Cosmos 2219 Rocket 3.4 19:02:19 10° NNW 19:06:50 24° NE 19:11:02 11° E
SKYMED 2 3.8 19:02:52 10° NNE 19:07:06 48° E 19:11:18 10° S
Meteor 2-14 Rocket 4.4 19:01:25 10° S 19:07:27 68° E 19:13:30 10° NNE
Cosmos 1624 Rocket 4.2 19:02:18 10° NNW 19:07:32 76° WSW 19:12:44 10° SSE
ERS-2 3.4 19:05:36 10° S 19:09:10 46° W 19:12:46 10° NNW
Meteor 2-16 Rocket 4.5 19:04:00 10° S 19:09:59 61° E 19:16:02 10° NNE
Thor Agena Rocket 4.5 19:06:32 10° NE 19:10:44 25° E 19:14:52 10° SSE
Cosmos 1743 Rocket 3.5 19:09:11 10° N 19:13:33 69° ENE 19:17:56 10° SSE
Cosmos 1908 4.4 19:12:44 10° SE 19:15:48 22° E 19:18:53 10° NE
Cosmos 2151 3.0 19:11:44 10° N 19:16:00 57° ENE 19:20:11 10° SSE
SL-16 R/B 3.0 19:11:01 10° NW 19:16:35 57° WSW 19:22:07 10° S
Cosmos 2237 4.4 19:12:24 10° NNW 19:18:01 51° NE 19:23:36 10° SE
Cosmos 1420 Rocket 4.4 19:12:53 10° NNW 19:18:02 45° ENE 19:23:06 10° SE
MTI 3.9 19:15:20 10° N 19:18:34 77° WNW 19:21:47 10° SSW
Cosmos 1680 Rocket 4.2 19:14:05 10° SW 19:19:18 59° WNW 19:24:31 10° NNE
USA 234 3.7 19:15:23 12° E 19:21:16 52° NNE 19:27:35 10° WNW
Iridium 4 Rocket 4.3 19:18:12 10° SE 19:23:09 34° E 19:28:20 10° NNE
H-2A R/B 3.4 19:20:22 10° SE 19:23:52 34° ENE 19:27:27 10° N
Cosmos 1842 Rocket 3.7 19:20:58 10° S 19:25:19 53° E 19:29:41 10° NNE
ISS -0.5 19:26:03 10° WSW 19:26:42 10° SW 19:27:22 10° SSW
Cosmos 1242 Rocket 4.2 19:24:32 10° SW 19:27:57 38° WNW 19:31:26 10° N
Envisat 4.3 19:26:29 16° E 19:28:48 21° ENE 19:32:35 10° N
Resurs 01 Rocket 3.0 19:27:35 17° E 19:29:02 20° ENE 19:32:15 10° NNE
FREGAT/IRIS 3.1 19:28:30 10° SE 19:31:18 37° ENE 19:34:08 10° N
Cosmos 2237 Rocket 3.5 19:30:30 10° NNW 19:35:01 23° NE 19:37:30 18° ENE
Cosmos 1500 Rocket 3.5 19:31:33 10° N 19:35:58 89° E 19:40:17 10° S
Cosmos 2221 3.2 19:32:44 10° SSE 19:36:35 33° E 19:40:29 10° NNE
CZ-2D R/B 4.4 19:37:04 22° E 19:38:04 25° ENE 19:41:16 10° N
Cosmos 1315 Rocket 2.8 19:35:18 10° N 19:39:20 66° ENE 19:43:23 10° SSE
SL-16 R/B 4.0 19:39:18 10° N 19:42:40 16° NNE 19:44:37 13° NE
Cosmos 921 Rocket 3.0 19:38:27 10° NNW 19:42:59 74° ENE 19:47:24 10° SSE
HJ-1C 3.8 19:43:41 23° SE 19:45:19 40° ENE 19:48:33 10° N
Cosmos 2366 rocket 4.1 19:39:22 10° SSW 19:45:36 81° W 19:51:50 10° N
SPOT 3 Rocket 4.4 19:44:22 10° S 19:49:26 53° W 19:54:34 10° NNW
Cosmos 2058 3.3 19:45:49 10° NNW 19:50:00 65° W 19:54:08 10° S
Cosmos 1461 3.3 19:47:57 10° SW 19:52:00 63° NW 19:56:08 11° NE
Cosmos 1626 3.5 19:50:02 10° NNW 19:53:35 41° W 19:57:06 10° SSW
COSMOS 2428 2.7 19:48:28 10° NNW 19:54:09 64° ENE 19:58:23 18° SE
RESURS DK-1 2.7 19:50:28 10° NW 19:54:34 65° WSW 19:58:40 10° SSE
DMSP B5D1-3 4.4 19:49:59 10° NNE 19:55:09 84° ESE 20:00:18 10° SSW
COSMO-SKYMED 1 3.2 19:50:56 10° N 19:55:14 58° WNW 19:59:29 10° SSW
Cosmos 2333 Rocket 2.7 19:52:14 10° NNW 19:57:39 41° NE 20:00:03 28° E
SAR-Lupe-3 4.4 19:54:50 10° NNE 19:58:27 72° ESE 20:02:01 10° S
Cosmos 2084 4.1 19:56:51 10° NNW 20:00:16 30° NE 20:00:45 29° NE
Cosmos 2360 Rocket 2.7 19:55:12 10° NW 20:00:46 61° WSW 20:06:20 10° SSE
Cosmos 2098 Rocket 3.5 20:00:04 10° SSE 20:04:16 48° E 20:09:37 10° NNE
Cosmos 1833 4.1 19:59:24 10° SSW 20:05:04 73° ESE 20:10:43 10° NNE
Cosmos 2322 Rocket 4.5 20:02:05 10° NW 20:06:33 25° WSW 20:11:00 10° SSW
Lacrosse 5 rocket 2.4 20:02:40 10° W 20:06:52 41° NNW 20:09:05 23° NE
SL-24 R/B - RUBIN 2 4.5 20:02:59 10° NW 20:07:52 52° WSW 20:11:47 13° SSE
FengYun 1-2 T 4.2 20:02:33 10° SSE 20:08:04 86° WSW 20:13:36 10° NNW
Meteor 2-1 Rocket 4.4 20:03:12 10° SSW 20:09:00 83° WNW 20:14:57 10° N
SJ-6B 2.5 20:06:33 18° SSE 20:09:13 84° ENE 20:12:59 10° NNW
Cosmos 2219 3.9 20:05:11 10° SSE 20:09:45 31° ESE 20:09:45 31° ESE
Sich 1 3.2 20:07:10 10° N 20:11:25 49° ENE 20:12:08 44° ESE
SL-8 R/B 4.4 20:07:35 10° SW 20:11:55 34° SSE 20:12:26 33° SE
Cosmos 1452 Rocket 4.2 20:07:45 10° NNW 20:12:54 55° WSW 20:18:00 10° S
Cosmos 1805 Rocket 3.4 20:09:41 10° N 20:14:05 76° E 20:16:56 21° SSE
NOSS 0 Rocket 4.1 20:08:17 10° NNW 20:14:19 51° NE 20:16:34 35° ESE
BREEZE-M DEB (TANK) 3.2 20:07:57 10° W 20:17:43 61° S 20:19:03 41° SE
H-2A R/B 4.3 20:20:20 11° NE 20:20:20 11° NE 20:21:01 10° NNE
MOS 1-B Rocket 3.8 20:16:03 21° SSE 20:19:56 68° ENE 20:26:00 10° NNW
Cosmos 1000 Rocket 4.5 20:13:47 10° N 20:20:05 84° W 20:26:17 10° S
Cosmos 1666 Rocket 3.5 20:18:08 10° N 20:22:29 61° ENE 20:22:57 57° ESE
CZ-3A R/B 4.5 19:48:56 10° WNW 20:22:44 76° NNE 20:27:05 32° E
Cosmos 1821 Rocket 3.8 20:17:03 10° S 20:23:09 71° E 20:29:24 10° NNE
ATLAS 5 CENTAUR R/B 4.0 20:19:47 10° NW 20:23:34 19° N 20:26:35 13° NE
Abrixas rocket 2.7 20:21:00 10° WSW 20:23:46 53° SW 20:23:46 53° SW
USA 267 3.5 20:24:25 36° E 20:26:21 45° SE 20:32:33 10° SSW
Aureole 2 Rocket 2.8 20:22:37 10° NNW 20:25:58 59° NNE 20:25:58 59° NNE
Atlas Centaur 2 4.5 20:27:52 10° S 20:28:37 10° S 20:29:21 10° S
ALOS 4.1 20:24:46 10° SSW 20:28:55 31° W 20:33:06 10° NNW
Cosmos 2239 Rocket 4.3 20:25:59 10° S 20:32:07 81° E 20:38:18 10° N
Cosmos 1934 Rocket 3.9 20:26:05 10° S 20:32:20 65° E 20:38:39 10° NNE
Cosmos 1633 Rocket 3.0 20:28:10 10° N 20:32:23 63° ENE 20:32:23 63° ENE
Spot 2 Rocket 3.4 20:31:48 52° ESE 20:32:46 64° ENE 20:37:47 10° N
Gbstr 26 Del rocket 3.7 20:28:44 10° WNW 20:33:51 75° SSW 20:35:37 46° SE
Cosmos 1110 Rocket 4.0 20:30:29 10° NNW 20:35:47 61° ENE 20:36:22 57° E
CZ-4C R/B 3.5 20:40:54 10° S 20:42:52 22° S 20:42:52 22° S
Cosmos 2123 Rocket 3.9 20:40:08 10° N 20:46:23 89° ENE 20:50:17 25° S
Thor Agena Rocket 4.3 20:45:21 10° N 20:50:20 52° WNW 20:55:15 10° SW
Cosmos 2219 Rocket 2.1 20:45:50 10° NNW 20:51:27 81° WSW 20:52:46 54° SSE
Cosmos 1605 Rocket 3.8 20:56:46 65° ESE 20:57:12 68° E 21:03:15 10° NNE
Geosat 4.0 20:59:00 66° NNE 20:59:00 66° NNE 21:03:37 10° NNW
Cosmos 1048 Rocket 3.9 20:53:28 10° SSW 20:58:37 85° WNW 20:59:36 59° NNE
Cosmos 1939 Rocket 4.5 21:01:24 29° N 21:01:24 29° N 21:03:30 10° N
USA 234 3.1 21:02:44 62° ESE 21:04:01 89° NNE 21:10:38 10° WNW
Resurs 01 Rocket 2.1 21:05:09 57° W 21:05:09 57° W 21:09:31 10° NNW
Envisat 3.2 21:06:42 60° SW 21:07:22 67° WSW 21:12:28 10° NNW
Cosmos 967 Rocket 4.5 21:04:06 10° NW 21:10:33 68° NE 21:10:39 68° NE
Meteor 2-3 Rocket 3.9 21:05:31 10° N 21:10:30 62° NNE 21:10:30 62° NNE
Cosmos 2221 4.5 21:10:26 10° SW 21:14:11 28° WNW 21:17:59 10° N
Cosmos 2237 Rocket 2.3 21:14:06 10° NNW 21:19:21 75° NW 21:19:21 75° NW
Cosmos 1447 Rocket 4.4 21:20:34 10° N 21:26:57 82° W 21:27:02 82° WSW
BREEZE M DEB (TANK) 4.4 21:13:36 10° WNW 21:27:08 55° SW 21:27:24 55° SSW
SL-16 R/B 3.1 21:22:34 10° NNW 21:26:29 40° N 21:26:29 40° N
Cosmos 2333 Rocket 3.1 21:36:35 10° NW 21:41:57 42° WSW 21:42:05 42° WSW
Cosmos 1980 4.4 21:37:01 10° NW 21:41:43 51° WNW 21:41:43 51° WNW
Lacrosse 5 rocket 3.9 21:43:05 10° WNW 21:44:46 20° NW 21:44:46 20° NW
H-2A R/B 4.1 22:00:58 21° N 22:00:58 21° N 22:02:45 10° N
USA 267 4.0 22:11:48 46° W 22:11:48 46° W 22:16:11 10° WSW
ATLAS 5 CENTAUR R/B 4.1 22:05:17 10° NW 22:08:07 23° N 22:08:07 23° N
